Weather in Berdyuzhje

Russia / Tyumen Oblast     55°48′17″N   68°18′42″E
temp.,
°C
wind,
m/s
gust,
m/s
humid.,
%
clouds,
%
prec.,
mm/h
press.,
hPa
HPBL,
m
19 april, mon
mon1923:00−5n79492 0.0 10281032
02:00−6n68505 0.0 10291051
05:00−7n57505 0.0 10311065
08:00−6nne67395 0.0 10321206
11:00−3n5734100 0.0 10331774
14:00−1n5731100 0.0 10322247
17:00−1n6733100 0.0 10322054
20:00−3nne35455 0.0 1032101
20 april, tue
tue2023:00−4ne24515 0.0 1033134
02:00−5ne23520 0.0 1034106
05:00−5n11520 0.0 103412
08:00−3nw23385 0.0 1034949
11:000wnw34315 0.0 10321305
14:00+3w56290 0.0 10301508
17:00+5w68335 0.0 10281662
20:00+2wsw48515 0.0 1027140
21 april, wed
wed2123:00+1w5125873 0.0 1026254
02:00+1w5126691 0.0 1025231
05:000nw497457 0.0 1026168
08:00+4n58719 0.0 1028487
11:00+7n685682 0.0 10291390
14:00+8n674029 0.0 10291607
17:00+8nne56352 0.0 10311642
20:00+5ne34520 0.0 103468
22 april, thu
thu2223:00+3e35610 0.0 103685
02:00+1ese35690 0.0 1037102
05:00−1se36772 0.0 1039136
08:00+3se45580 0.0 1041446
11:00+6se45465 0.0 1041999
14:00+9sse453789 0.0 10401275
17:00+9sse45349 0.0 10401348
20:00+6sse37493 0.0 1040144
23 april, fri
fri2323:00+4sse5115477 0.0 1040237
02:00+2sse51258100 0.0 1040248
05:00+1sse4106675 0.0 1040196
08:00+5s6956100 0.0 1040330
11:00+10s6839100 0.0 1039959
14:00+12s673332 0.0 10381559
17:00+12s66305 0.0 10371668
20:00+8se4846100 0.0 1036151